Printer-friendly version
Follow the MPC on Twitter Follow the MPC on Facebook The MPC blog
Minor Planet Center

MPEC 2010-F38 : COMET P/2001 Q11 (NEAT)

The following Minor Planet Electronic Circular may be linked-to from your own Web pages, but must not otherwise be redistributed electronically.

A form allowing access to any MPEC is at the bottom of this page.


Read MPEC 2010-F37 Read MPEC 2010-F39


M.P.E.C. 2010-F38                                Issued 2010 Mar. 19, 00:57 UT

     The Minor Planet Electronic Circulars contain information on unusual
         minor planets and routine data on comets.  They are published
   on behalf of Commission 20 of the International Astronomical Union by the
          Minor Planet Center, Smithsonian Astrophysical Observatory,
                          Cambridge, MA 02138, U.S.A.

             Prepared using the Tamkin Foundation Computer Network

                              MPC@CFA.HARVARD.EDU
       URL http://www.minorplanetcenter.org/iau/mpc.html  ISSN 1523-6714

                            COMET P/2001 Q11 (NEAT)

Observations:
    PK01Q110  C2001 08 18.47017 03 18 48.31 -02 37 06.8          18.9 T EF038644
    PK01Q110  C2001 08 18.48088 03 18 49.28 -02 37 12.8          18.7 T EF038644
    PK01Q110  C2001 08 18.49142 03 18 50.26 -02 37 18.7          18.8 T EF038644
    PK01Q110  C2001 08 22.59845 03 25 01.24 -03 16 55.7          18.9 T EF038608
    PK01Q110  C2001 08 22.60927 03 25 02.12 -03 17 01.8          18.3 T EF038608
    PK01Q110  C2001 08 25.52729 03 29 10.39 -03 47 07.8          19.1 T EF038608
    PK01Q110  C2001 08 25.53780 03 29 11.29 -03 47 14.6          19.0 T EF038608
    PK01Q110  C2001 10 24.33590 03 53 42.00 -16 04 56.0          17.9 T EF038699
    PK01Q110  C2001 10 24.35223 03 53 41.32 -16 05 04.8                 EF038699
    PK01Q110  C2001 10 24.36858 03 53 40.73 -16 05 12.9                 EF038699
    PK01Q110  C2001 10 24.38497 03 53 40.09 -16 05 20.9                 EF038699
    PK01Q110  C2001 10 26.54531 03 52 21.59 -16 23 17.8          18.6 T EF038608
    PK01Q110  C2001 10 26.55591 03 52 21.25 -16 23 24.3          19.0 T EF038608
    PK01Q110  C2001 10 26.56672 03 52 20.77 -16 23 28.8          18.4 T EF038608
    PK01Q110  C2001 11 15.53473 03 37 02.19 -17 42 00.2          18.6 T EF038608
    PK01Q110  C2001 11 15.55569 03 37 01.02 -17 41 59.3          18.7 T EF038608
    PK01Q110  C2001 11 22.44626 03 31 32.36 -17 29 39.2                 EF038644
    PK01Q110  C2001 11 30.51468 03 25 52.52 -16 50 59.0          19.2 N EF038608
    PK01Q110  C2001 12 13.10082 03 19 38.75 -15 07 44.0          20.2 T EF038644
    PK01Q110  C2001 12 13.12355 03 19 38.16 -15 07 31.1          19.9 T EF038644
    PK01Q110  C2001 12 13.14434 03 19 37.72 -15 07 18.5          19.4 T EF038644

Observer details:
608 Haleakala-NEAT/MSSS.  Observers E. F. Helin, S. Pravdo, K. Lawrence,
    P. Kervin, R. Maeda, J. Africano, M. Hicks.  Measurer M. Meyer.
    1.2-m reflector + CCD.
644 Palomar Mountain/NEAT.  Observers E. F. Helin, S. Pravdo, K. Lawrence,
    M. Hicks, E. Hovland, T. Bickler, J. Schroeder, L. Scherr, R. Thicksten,
    A. Deetz.  Measurer M. Meyer.  1.2-m Schmidt + CCD.
699 Lowell Observatory-LONEOS.  Observers B. A. Skiff, B. W. Koehn.  0.59-m
    LONEOS Schmidt + CCD.

Orbital elements:
    P/2001 Q11 (NEAT)
Epoch 2001 June 20.0 TT = JDT 2452080.5
T 2001 June 22.35096 TT                                 MPC
q   1.8516286            (2000.0)            P               Q
n   0.15944553     Peri.  202.27293     +0.96904840     +0.15291746
a   3.3681737      Node   147.01235     -0.13601564     +0.98586938
e   0.4502574      Incl.   20.85256     -0.20602170     +0.06839456
P   6.18
Residuals in seconds of arc
010818 644  0.1+  0.1+    011024 699  0.9+  0.1-    011115 608  0.9+  0.0
010818 644  0.0   0.1+    011024 699  0.1-  0.4-    011115 608  0.4-  0.3+
010818 644  0.2+  0.0     011024 699  0.1+  0.1+    011122 644  0.5+  0.7-
010822 608  0.2+  0.1+    011024 699  0.3-  0.7+    011130 608  0.2-  1.1+
010822 608  0.4-  0.5+    011026 608  0.9-  0.6+    011213 644  0.6+  0.1+
010825 608  0.4-  0.4-    011026 608  0.3+  0.9-    011213 644  0.7-  0.4-
010825 608  0.3+  0.5-    011026 608  0.3-  0.3-    011213 644  0.3-  0.1-

Brian G. Marsden             (C) Copyright 2010 MPC           M.P.E.C. 2010-F38

Read MPEC 2010-F37 Read MPEC 2010-F39


MPEC number:

Enter an MPEC number in one of the following forms:

  • 1997-B01 (the full form)
  • J97B01 (the packed version of the full form)
  • B01 (the abbreviated form)

Valid HTML 4.01!